FW6113 Weather Reports


time (UTC)temp
C
wind
direction
speed
KPH
gust
KPH
rain 1hr
cm
rain 24hr
cm
rain mn
cm
humidity
%
barometer
mb
20260505183757 25 150 6.4 16.1 0.00 0.00 0.00 40 1016.2
20260505183257 25 194 9.7 19.3 0.00 0.00 0.00 38 1016.2
20260505182756 25 218 9.7 19.3 0.00 0.00 0.00 38 1016.3
20260505182520 25 290 6.4 17.7 0.00 0.00 0.00 37 1016.3
20260505182017 25 209 6.4 17.7 0.00 0.00 0.00 38 1016.4
20260505181256 25 187 8.0 17.7 0.00 0.00 0.00 37 1016.6
20260505181243 25 246 9.7 27.4 0.00 0.00 0.00 38 1016.8
20260505180256 25 215 8.0 27.4 0.00 0.00 0.00 37 1017.1
20260505175757 25 298 6.4 16.1 0.00 0.00 0.00 39 1017.2
20260505175257 25 208 8.0 20.9 0.00 0.00 0.00 41 1017.5
20260505174756 25 200 9.7 20.9 0.00 0.00 0.00 40 1017.4
20260505174257 25 262 8.0 20.9 0.00 0.00 0.00 41 1017.4
20260505173757 25 205 9.7 19.3 0.00 0.00 0.00 42 1017.3
20260505173257 25 197 9.7 19.3 0.00 0.00 0.00 41 1017.4
20260505172757 25 302 9.7 20.9 0.00 0.00 0.00 41 1017.4
20260505172257 24 194 9.7 25.7 0.00 0.00 0.00 41 1017.3
20260505171757 25 205 9.7 25.7 0.00 0.00 0.00 40 1017.4
20260505171257 24 244 8.0 19.3 0.00 0.00 0.00 41 1017.2
20260505171240 24 303 8.0 19.3 0.00 0.00 0.00 41 1017.1
20260505170509 24 246 6.4 22.5 0.00 0.00 0.00 44 1016.9
20260505170350 25 315 8.0 22.5 0.00 0.00 0.00 42 1016.9
20260505165253 24 234 6.4 17.7 0.00 0.00 0.00 46 1017.1
20260505164752 24 269 6.4 17.7 0.00 0.00 0.00 43 1017.3
20260505164511 24 114 6.4 19.3 0.00 0.00 0.00 46 1017.5
20260505163753 24 250 6.4 19.3 0.00 0.00 0.00 46 1017.6
20260505163253 23 129 6.4 17.7 0.00 0.00 0.00 47 1017.5
20260505162751 23 167 6.4 17.7 0.00 0.00 0.00 47 1017.5
20260505162245 23 242 9.7 17.7 0.00 0.00 0.00 46 1017.5
20260505161745 23 88 8.0 17.7 0.00 0.00 0.00 46 1017.4
20260505161244 23 205 6.4 16.1 0.00 0.00 0.00 45 1017.4
20260505161008 23 324 6.4 14.5 0.00 0.00 0.00 50 1017.5
20260505160244 23 245 6.4 16.1 0.00 0.00 0.00 50 1017.7
20260505153240 22 257 6.4 12.9 0.00 0.00 0.00 50 1017.6
20260505152738 22 276 6.4 19.3 0.00 0.00 0.00 50 1017.7
20260505152239 22 277 4.8 19.3 0.00 0.00 0.00 52 1017.8
20260505151738 22 147 3.2 11.3 0.00 0.00 0.00 54 1017.9
20260505151238 22 212 3.2 9.7 0.00 0.00 0.00 54 1017.9
20260505150738 22 217 3.2 9.7 0.00 0.00 0.00 57 1017.9
20260505150239 21 200 3.2 9.7 0.00 0.00 0.00 57 1017.9
20260505140228 18 242 4.8 11.3 0.00 0.00 0.00 64 1017.5
20260505130219 16 212 4.8 12.9 0.00 0.00 0.00 72 1017.3
20260505124720 15 261 4.8 11.3 0.00 0.00 0.00 75 1017.2
20260505124443 15 184 4.8 12.9 0.00 0.00 0.00 75 1017.1
20260505123721 15 234 4.8 14.5 0.00 0.00 0.00 76 1017.1
20260505123220 15 201 4.8 14.5 0.00 0.00 0.00 76 1017.1
20260505122943 15 227 4.8 12.9 0.00 0.00 0.00 76 1017.1
20260505122220 15 275 6.4 12.9 0.00 0.00 0.00 76 1017.1
20260505121932 14 207 6.4 12.9 0.00 0.00 0.00 77 1016.9
20260505121216 14 257 4.8 12.9 0.00 0.00 0.00 78 1016.9
20260505120716 13 187 4.8 9.7 0.00 0.00 0.00 78 1016.9
20260505120445 13 198 3.2 9.7 0.00 0.00 0.00 78 1016.9
20260505115716 13 194 3.2 9.7 0.00 0.00 0.00 78 1016.8
20260505115216 13 298 3.2 11.3 0.00 0.00 0.00 79 1016.8
20260505114717 13 221 3.2 11.3 0.00 0.00 0.00 79 1016.7
20260505114216 12 195 3.2 8.0 0.00 0.00 0.00 79 1016.7
20260505113716 12 197 3.2 6.4 0.00 0.00 0.00 80 1016.7
20260505113217 12 206 1.6 6.4 0.00 0.00 0.00 80 1016.8
20260505112716 12 195 3.2 9.7 0.00 0.00 0.00 80 1016.9
20260505112216 12 202 3.2 9.7 0.00 0.00 0.00 80 1016.9
20260505111716 12 198 3.2 9.7 0.00 0.00 0.00 80 1016.8
20260505111216 12 212 3.2 9.7 0.00 0.00 0.00 80 1016.9
20260505110715 12 217 3.2 6.4 0.00 0.00 0.00 80 1016.9
20260505110216 12 200 3.2 6.4 0.00 0.00 0.00 80 1016.8
20260505101716 12 222 3.2 6.4 0.00 0.00 0.00 78 1016.5
20260505101216 12 208 3.2 6.4 0.00 0.00 0.00 78 1016.5
20260505100715 12 215 3.2 9.7 0.00 0.00 0.00 78 1016.5
20260505100216 12 227 3.2 9.7 0.00 0.00 0.00 78 1016.5
20260505095716 12 219 3.2 6.4 0.00 0.00 0.00 77 1016.5
20260505095216 12 199 3.2 6.4 0.00 0.00 0.00 77 1016.5
20260505094716 12 209 3.2 6.4 0.00 0.00 0.00 76 1016.5
20260505094217 12 217 3.2 6.4 0.00 0.00 0.00 76 1016.5
20260505093716 12 263 3.2 8.0 0.00 0.00 0.00 76 1016.5
20260505093216 12 219 3.2 8.0 0.00 0.00 0.00 76 1016.5
20260505092717 12 261 3.2 8.0 0.00 0.00 0.00 76 1016.5
20260505092217 12 245 3.2 9.7 0.00 0.00 0.00 76 1016.5
20260505091717 12 213 3.2 9.7 0.00 0.00 0.00 77 1016.5
20260505091435 12 243 3.2 8.0 0.00 0.00 0.00 77 1016.5
20260505090716 12 223 3.2 8.0 0.00 0.00 0.00 77 1016.3
20260505090216 12 211 3.2 8.0 0.00 0.00 0.00 78 1016.3
20260505085716 11 207 1.6 6.4 0.00 0.00 0.00 78 1016.4
20260505085217 11 217 1.6 4.8 0.00 0.00 0.00 78 1016.5
20260505084716 11 239 1.6 4.8 0.00 0.00 0.00 78 1016.4
20260505084216 11 195 1.6 3.2 0.00 0.00 0.00 78 1016.3
20260505083716 11 194 1.6 3.2 0.00 0.00 0.00 78 1016.3
20260505083215 11 193 1.6 3.2 0.00 0.00 0.00 78 1016.2
20260505082939 11 194 1.6 3.2 0.00 0.00 0.00 78 1016.2
20260505082216 11 189 0.0 3.2 0.00 0.00 0.00 77 1016.2
20260505081941 11 186 0.0 3.2 0.00 0.00 0.00 77 1016.2
20260505081216 11 188 1.6 3.2 0.00 0.00 0.00 76 1016.2
20260505080711 11 190 1.6 3.2 0.00 0.00 0.00 76 1016.2
20260505080212 12 188 1.6 3.2 0.00 0.00 0.00 75 1016.1
20260505075712 12 185 1.6 3.2 0.00 0.00 0.00 75 1016.1
20260505075211 12 188 1.6 3.2 0.00 0.00 0.00 74 1016.0
20260505074712 12 193 1.6 3.2 0.00 0.00 0.00 74 1016.0
20260505074209 12 188 0.0 3.2 0.00 0.00 0.00 73 1016.0
20260505073710 12 188 0.0 3.2 0.00 0.00 0.00 72 1015.9
20260505073208 13 190 1.6 3.2 0.00 0.00 0.00 71 1015.9
20260505072707 13 184 1.6 3.2 0.00 0.00 0.00 70 1015.9
20260505072207 13 184 1.6 3.2 0.00 0.00 0.00 69 1015.8
20260505071922 14 189 1.6 3.2 0.00 0.00 0.00 68 1015.9
20260505071158 14 187 1.6 3.2 0.00 0.00 0.00 67 1015.9
20260505070656 15 182 1.6 4.8 0.00 0.00 0.00 65 1015.8
20260505070156 15 192 1.6 6.4 0.00 0.00 0.00 64 1015.8
20260505065156 15 190 1.6 6.4 0.00 0.00 0.00 64 1015.8
20260505064918 15 182 3.2 9.7 0.00 0.00 0.00 63 1015.9
20260505064154 15 175 3.2 11.3 0.00 0.00 0.00 63 1015.8
20260505063653 15 182 3.2 11.3 0.00 0.00 0.00 64 1015.7
20260505063152 14 278 1.6 11.3 0.00 0.00 0.00 66 1015.7
20260505062650 14 190 1.6 6.4 0.00 0.00 0.00 67 1015.7
20260505062149 13 247 1.6 4.8 0.00 0.00 0.00 68 1015.7
20260505061647 13 187 1.6 8.0 0.00 0.00 0.00 70 1015.8
20260505061148 12 192 1.6 8.0 0.00 0.00 0.00 72 1015.7
20260505060919 12 188 0.0 4.8 0.00 0.00 0.00 75 1015.7
20260505060147 12 181 0.0 1.6 0.00 0.00 0.00 77 1015.9
20260505055907 11 182 0.0 1.6 0.00 0.00 0.00 77 1015.9
20260505055148 11 184 0.0 1.6 0.00 0.00 0.00 78 1015.8
20260505054648 11 190 0.0 0.0 0.00 0.00 0.00 79 1015.8
20260505054148 11 190 0.0 0.0 0.00 0.00 0.00 79 1015.9
20260505053648 11 187 0.0 0.0 0.00 0.00 0.00 78 1016.0
20260505053143 11 185 0.0 0.0 0.00 0.00 0.00 78 1016.0
20260505052641 11 185 0.0 0.0 0.00 0.00 0.00 77 1016.0
20260505052141 11 185 0.0 0.0 0.00 0.00 0.00 77 1016.1
20260505051638 11 185 0.0 0.0 0.00 0.00 0.00 77 1016.2
20260505051137 12 184 0.0 0.0 0.00 0.00 0.00 76 1016.2
20260505050637 12 184 0.0 1.6 0.00 0.00 0.00 76 1016.2
20260505050137 12 184 0.0 1.6 0.00 0.00 0.00 76 1016.1
20260505041132 13 190 0.0 0.0 0.00 0.00 0.00 74 1016.3
20260505040632 13 190 0.0 0.0 0.00 0.00 0.00 73 1016.3
20260505040132 13 190 0.0 0.0 0.00 0.00 0.00 73 1016.3
20260505035627 13 190 0.0 0.0 0.00 0.00 0.00 73 1016.3
20260505035127 13 190 0.0 0.0 0.00 0.00 0.00 73 1016.4
20260505034627 13 190 0.0 0.0 0.00 0.00 0.00 73 1016.4
20260505034351 13 190 0.0 0.0 0.00 0.00 0.00 72 1016.4
20260505034120 13 190 0.0 0.0 0.00 0.00 0.00 72 1016.4
20260505033127 13 190 0.0 0.0 0.00 0.00 0.00 72 1016.5
20260505032624 13 189 0.0 0.0 0.00 0.00 0.00 71 1016.5
20260505032124 13 188 0.0 0.0 0.00 0.00 0.00 71 1016.5
20260505031625 14 188 0.0 0.0 0.00 0.00 0.00 71 1016.5
20260505031121 14 189 0.0 0.0 0.00 0.00 0.00 71 1016.3
20260505030621 14 186 0.0 0.0 0.00 0.00 0.00 70 1016.4
20260505030344 14 187 0.0 0.0 0.00 0.00 0.00 70 1016.4
20260505025836 14 188 0.0 0.0 0.00 0.00 0.00 69 1016.5
20260505025341 14 188 0.0 0.0 0.00 0.00 0.00 69 1016.5
20260505024617 14 188 0.0 1.6 0.00 0.00 0.00 69 1016.6
20260505024117 14 189 0.0 1.6 0.00 0.00 0.00 68 1016.3
20260505023615 15 190 0.0 1.6 0.00 0.00 0.00 67 1016.3
20260505023114 15 185 0.0 1.6 0.00 0.00 0.00 67 1016.3
20260505022613 15 190 0.0 1.6 0.00 0.00 0.00 67 1016.2
20260505022113 15 188 0.0 1.6 0.00 0.00 0.00 66 1016.2
20260505021608 15 188 0.0 3.2 0.00 0.00 0.00 66 1016.2
20260505021107 15 188 0.0 3.2 0.00 0.00 0.00 65 1016.0
20260505020828 15 189 0.0 3.2 0.00 0.00 0.00 66 1016.0
20260505020105 15 196 0.0 3.2 0.00 0.00 0.00 65 1015.9
20260505015824 15 186 0.0 0.0 0.00 0.00 0.00 65 1015.9
20260505015103 16 184 0.0 0.0 0.00 0.00 0.00 64 1015.9
20260505014603 16 184 0.0 0.0 0.00 0.00 0.00 63 1015.9
20260505014102 16 184 0.0 0.0 0.00 0.00 0.00 62 1015.8
20260505013600 16 184 0.0 0.0 0.00 0.00 0.00 62 1015.8
20260505013101 16 184 0.0 0.0 0.00 0.00 0.00 62 1015.7
20260505012600 17 184 0.0 0.0 0.00 0.00 0.00 60 1015.7
20260505012056 17 184 0.0 0.0 0.00 0.00 0.00 59 1015.7
20260505011814 17 184 0.0 0.0 0.00 0.00 0.00 59 1015.5
20260505011051 17 184 0.0 0.0 0.00 0.00 0.00 57 1015.5
20260505010549 18 184 0.0 1.6 0.00 0.00 0.00 56 1015.4
20260505010049 18 184 0.0 1.6 0.00 0.00 0.00 55 1015.4
20260505005549 18 184 0.0 1.6 0.00 0.00 0.00 54 1015.4
20260505005047 18 188 0.0 1.6 0.00 0.00 0.00 53 1015.4
20260505004547 19 182 0.0 1.6 0.00 0.00 0.00 52 1015.4
20260505004047 20 181 0.0 1.6 0.00 0.00 0.00 51 1015.2
20260505003548 20 183 0.0 1.6 0.00 0.00 0.00 48 1015.2
20260505003045 20 187 1.6 3.2 0.00 0.00 0.00 47 1015.3
20260505002545 20 192 1.6 3.2 0.00 0.00 0.00 46 1015.1
20260505002045 21 190 0.0 4.8 0.00 0.00 0.00 46 1015.1
20260505001545 21 188 1.6 4.8 0.00 0.00 0.00 45 1015.1
20260505001304 21 198 1.6 9.7 0.00 0.00 0.00 44 1015.2
20260505001031 21 239 3.2 9.7 0.00 0.00 0.00 43 1015.1
20260505000043 22 197 3.2 8.0 0.00 0.00 0.00 42 1015.1
20260504235543 22 260 3.2 11.3 0.00 0.00 0.00 42 1015.1
20260504235043 22 209 3.2 11.3 0.00 0.00 0.00 41 1015.0
20260504234542 22 213 3.2 9.7 0.00 0.00 0.00 39 1015.0
20260504234041 22 225 3.2 9.7 0.00 0.00 0.00 38 1014.8
20260504233541 23 204 6.4 17.7 0.00 0.00 0.00 37 1014.8
20260504233042 23 219 6.4 17.7 0.00 0.00 0.00 37 1014.7
20260504232541 23 200 4.8 16.1 0.00 0.00 0.00 36 1014.7
20260504232041 23 256 4.8 16.1 0.00 0.00 0.00 34 1014.7
20260504231542 24 265 3.2 11.3 0.00 0.00 0.00 34 1014.6
20260504231041 24 217 3.2 11.3 0.00 0.00 0.00 33 1014.7
20260504230802 24 211 3.2 11.3 0.00 0.00 0.00 32 1014.6
20260504230041 24 204 4.8 14.5 0.00 0.00 0.00 32 1014.7
20260504225540 24 204 4.8 14.5 0.00 0.00 0.00 31 1014.6
20260504225041 24 260 4.8 22.5 0.00 0.00 0.00 31 1014.7
20260504224541 24 264 6.4 22.5 0.00 0.00 0.00 32 1014.6
20260504224041 24 196 4.8 14.5 0.00 0.00 0.00 31 1014.6
20260504223541 25 208 4.8 12.9 0.00 0.00 0.00 31 1014.7
20260504223303 25 212 6.4 12.9 0.00 0.00 0.00 31 1014.7
20260504222803 25 252 6.4 12.9 0.00 0.00 0.00 31 1014.8
20260504222041 25 213 6.4 12.9 0.00 0.00 0.00 32 1014.7
20260504221542 25 219 4.8 14.5 0.00 0.00 0.00 32 1014.8
20260504221041 25 296 4.8 14.5 0.00 0.00 0.00 33 1014.7
20260504220541 25 192 6.4 17.7 0.00 0.00 0.00 33 1014.7
20260504220041 25 300 6.4 17.7 0.00 0.00 0.00 34 1014.6
20260504215758 25 144 6.4 20.9 0.00 0.00 0.00 33 1014.8
20260504215041 25 226 6.4 20.9 0.00 0.00 0.00 33 1014.7
20260504214541 26 214 6.4 19.3 0.00 0.00 0.00 32 1014.7
20260504214041 25 220 6.4 19.3 0.00 0.00 0.00 32 1014.6
20260504213541 26 277 4.8 11.3 0.00 0.00 0.00 30 1014.6
20260504213037 26 250 4.8 11.3 0.00 0.00 0.00 32 1014.6
20260504212537 26 291 4.8 14.5 0.00 0.00 0.00 31 1014.6
20260504212037 26 210 4.8 14.5 0.00 0.00 0.00 33 1014.6
20260504212014 26 162 4.8 16.1 0.00 0.00 0.00 32 1014.7
20260504211636 26 219 4.8 16.1 0.00 0.00 0.00 31 1014.6
20260504210537 26 163 3.2 12.9 0.00 0.00 0.00 33 1014.6
20260504210303 26 232 4.8 19.3 0.00 0.00 0.00 32 1014.7
20260504205534 26 252 6.4 19.3 0.00 0.00 0.00 31 1014.8
20260504205036 26 215 4.8 16.1 0.00 0.00 0.00 32 1014.9
20260504204533 26 279 4.8 11.3 0.00 0.00 0.00 30 1014.9
20260504204033 26 262 6.4 17.7 0.00 0.00 0.00 31 1014.9
20260504203533 26 228 4.8 17.7 0.00 0.00 0.00 33 1014.9
20260504203033 26 201 3.2 11.3 0.00 0.00 0.00 30 1014.9
20260504202756 26 271 4.8 12.9 0.00 0.00 0.00 30 1014.9
20260504202034 26 234 4.8 12.9 0.00 0.00 0.00 29 1015.0
20260504201533 26 203 4.8 14.5 0.00 0.00 0.00 29 1015.0
20260504201033 26 271 4.8 14.5 0.00 0.00 0.00 33 1015.1
20260504200533 26 245 4.8 14.5 0.00 0.00 0.00 30 1015.1
20260504200032 26 161 3.2 11.3 0.00 0.00 0.00 29 1015.2
20260504195533 26 55 3.2 9.7 0.00 0.00 0.00 30 1015.3
20260504195033 26 232 4.8 11.3 0.00 0.00 0.00 30 1015.4
20260504194757 26 279 4.8 12.9 0.00 0.00 0.00 32 1015.3
20260504194033 25 273 6.4 16.1 0.00 0.00 0.00 30 1015.4
20260504193533 25 198 6.4 16.1 0.00 0.00 0.00 31 1015.5
20260504193511 25 283 4.8 14.5 0.00 0.00 0.00 30 1015.5
20260504192533 26 234 4.8 14.5 0.00 0.00 0.00 31 1015.5
20260504192033 26 152 3.2 11.3 0.00 0.00 0.00 33 1015.7
20260504191533 26 184 3.2 11.3 0.00 0.00 0.00 32 1015.8
20260504191031 25 116 3.2 9.7 0.00 0.00 0.00 33 1015.7
20260504190529 25 128 4.8 11.3 0.00 0.00 0.00 31 1015.8
20260504190029 25 252 4.8 11.3 0.00 0.00 0.00 29 1016.1
20260504185527 25 256 4.8 11.3 0.00 0.00 0.00 30 1016.2
20260504185246 25 255 4.8 11.3 0.00 0.00 0.00 31 1016.3
20260504184525 25 205 4.8 12.9 0.00 0.00 0.00 31 1016.2